Location: Sungai Apap
(2.6167°N, 113.3833°E)
Time: 16:39:27
(UTC+00:00)

Cosmos 1892 Rocket - Pass Details

Date: 25 May 2024
Orbit: 603 x 629 km, 82.5° (Epoch: 12 June)

Event Time Altitude Azimuth Distance (km) Brightness Sun altitude
Rises 21:35:05 0° 188° (S) 2,856 6.7 -10.3°
Reaches altitude 10° 21:37:18 10° 190° (S) 1,949 5.8 -9.8°
Maximum altitude 21:41:35 72° 273° (W) 636 3.4 -8.8°
Drops below altitude 10° 21:45:52 10° 358° (N) 1,939 6.4 -7.8°
Sets 21:48:05 0° 0° (N) 2,841 7.3 -7.3°
